Flag for Belgium Weather past 2 weeks in Brussels, Belgium

Now
51 °F

Cool.


Feels Like: 47 °F
Forecast: 42 / 47 °F
Wind: 10 mph from Southwest

Location: Uccle

Current Time: Dec 19, 2014 at 7:58:24 AM

Latest Report: Dec 19, 2014 at 7:00 AM


Visibility: N/A

Pressure: 29.90 "Hg

Humidity: 94%

Dew point: 49 °F

Location of BrusselsLocation

Historic Weather in Brussels — Graph

°F

Brussels temperature yesterday

Maximum temperature yesterday: 54 °F (at 7:00 PM)
Minimum temperature yesterday: 51 °F (at 1:00 AM)
Average temperature yesterday: 53 °F

Past Weeks' High & Low Weather Summary

 TemperatureHumidityPressure
High54 °F (Dec 18, 7:00 PM)97% (Dec 14, 9:00 AM)30.40 "Hg (Dec 14, 9:00 AM)
Low29 °F (Dec 4, 6:00 AM)57% (Dec 10, 3:00 PM)29.41 "Hg (Dec 12, 1:00 PM)
Average41 °F89%30.00 "Hg
* Reported Dec 4 6:00 AM — Dec 19 6:00 AM, Brussels, Weather by CustomWeather, © 2014

Note: Actual official high and low records may vary slightly from our data, if they occured in-between our weather recording intervals... More about our weather records

Advertising

Brussels weather history for previous 24 hours

 ConditionsComfort  
Time TempWeatherWind HumidityBarometerVisibility
6:00 AM
Dec 19
51 °FCool.9 mph94%29.92 "HgN/A
5:00 AM51 °FCool.10 mph93%29.93 "HgN/A
3:00 AM52 °FCool.9 mph90%29.95 "HgN/A
2:00 AM52 °FCool.9 mph93%29.96 "HgN/A
1:00 AM52 °FCool.9 mph92%29.97 "HgN/A
12:00 AM52 °FCool.8 mph91%29.97 "HgN/A
11:00 PM
Dec 18
52 °FCool.9 mph94%29.97 "HgN/A
10:00 PM52 °FCool.8 mph94%29.98 "HgN/A
9:00 PM52 °FCool.8 mph94%29.97 "HgN/A
8:00 PM52 °FCool.8 mph92%29.96 "HgN/A
7:00 PM54 °FCool.7 mph86%29.95 "HgN/A
6:00 PM53 °FOvercast.8 mph87%29.94 "Hg6 mi
5:00 PM53 °FCool.7 mph91%29.94 "HgN/A
4:00 PM53 °FCool.7 mph95%29.93 "HgN/A
3:00 PM54 °FLow clouds.6 mph96%29.91 "Hg1 mi
2:00 PM53 °FDrizzle. Low clouds.6 mph96%29.91 "Hg1 mi
1:00 PM53 °FCool.6 mph97%29.91 "HgN/A
10:00 AM52 °FCool.6 mph96%29.90 "HgN/A
7:00 AM52 °FDrizzle. Low clouds.3 mph95%29.86 "Hg1 mi
Weather by CustomWeather, © 2014

See weather overviewHow to use our weather pages